DW8618 Nerja ES current weather conditions

sailwx.info

Wind from 232

Air temperature 27.8° C
Dewpoint 20.1° C

Last reported at 2020-Jul-10 15:01 UTC.
Time now 2020-Jul-10 16:02 UTC

Location: N 36°46' W 003°52'.
View on Google Maps.

See reports from other nearby stations

  
Tides and Currents Weather Stations Pressure Air Temp Water Temp Dewpoint Dewpoint Depression Visibility Wind Speed Wind Dir Waves Ship Positions
date/time (UTC)wind fromknots sea level pressurealtimeterstation pressurevisibilityair tempwater tempwave heightnotes
2020-Jul-10 15:01 232 27.8
2020-Jul-10 14:45 237 27.8
2020-Jul-10 14:30 215 27.2
2020-Jul-10 14:15 173 1 gusting 6 26.7
2020-Jul-10 14:01 180 1 gusting 6 26.7
2020-Jul-10 13:45 161 26.7
2020-Jul-10 13:30 200 3 gusting 6 26.7
2020-Jul-10 13:16 219 26.7
2020-Jul-10 13:01 167 0 gusting 3 26.1
2020-Jul-10 12:45 138 25.6
2020-Jul-10 12:31 186 1 gusting 5 26.1
2020-Jul-10 12:16 184 25.0
2020-Jul-10 12:01 146 25.0
2020-Jul-10 11:45 198 0 gusting 4 25.6
2020-Jul-10 11:30 165 0 gusting 5 26.1
2020-Jul-10 11:15 186 1 gusting 4 26.7
2020-Jul-10 11:01 173 25.6
2020-Jul-10 10:45 180 25.6
2020-Jul-10 10:31 159 25.6
2020-Jul-10 10:16 147 26.1
2020-Jul-10 10:01 158 26.1
2020-Jul-10 09:45 153 25.6
2020-Jul-10 09:30 168 25.6
2020-Jul-10 09:16 190 25.6
2020-Jul-10 09:01 166 25.6
2020-Jul-10 08:46 211 25.6
2020-Jul-10 08:31 201 25.6
2020-Jul-10 08:16 199 25.6
2020-Jul-10 08:01 213 26.1
2020-Jul-10 07:45 321 0 gusting 2 27.2
2020-Jul-10 07:31 325 26.7
2020-Jul-10 07:16 324 26.1
2020-Jul-10 07:01 323 24.4
2020-Jul-10 06:45 013 23.3
2020-Jul-10 06:31 345 22.8
2020-Jul-10 06:16 010 21.7
2020-Jul-10 06:01 355 21.1
2020-Jul-10 05:46 005 21.1
2020-Jul-10 05:30 005 21.1
2020-Jul-10 05:15 005 21.1
2020-Jul-10 05:01 351 21.1
2020-Jul-10 04:46 005 21.7
2020-Jul-10 04:30 350 21.7
2020-Jul-10 04:16 347 22.2
2020-Jul-10 04:01 347 22.2
2020-Jul-10 03:46 347 22.2
2020-Jul-10 03:30 346 21.7
2020-Jul-10 03:16 338 21.7
2020-Jul-10 03:01 325 22.2
2020-Jul-10 02:45 325 22.2
2020-Jul-10 02:30 325 22.2
2020-Jul-10 02:16 325 22.2
2020-Jul-10 02:01 325 22.2
2020-Jul-10 01:46 326 22.2
2020-Jul-10 01:30 326 22.2
2020-Jul-10 01:16 326 22.8
2020-Jul-10 01:01 326 22.8
2020-Jul-10 00:46 327 22.8
2020-Jul-10 00:30 326 23.3
2020-Jul-10 00:15 324 23.3
2020-Jul-10 00:01 355 23.3
2020-Jul-09 23:46 355 23.3
2020-Jul-09 23:31 355 23.3
2020-Jul-09 23:15 355 23.3
2020-Jul-09 23:01 350 23.3
2020-Jul-09 22:45 321 23.3
2020-Jul-09 22:31 319 23.3
2020-Jul-09 22:15 319 23.3
2020-Jul-09 22:01 298 23.9
2020-Jul-09 21:45 298 23.3
2020-Jul-09 21:31 298 23.3
2020-Jul-09 21:15 242 24.4
2020-Jul-09 21:01 242 24.4
2020-Jul-09 20:45 242 24.4
2020-Jul-09 20:31 242 25.0
2020-Jul-09 20:16 242 25.0
2020-Jul-09 20:01 242 25.0
2020-Jul-09 19:46 242 25.6
2020-Jul-09 19:30 242 25.6
2020-Jul-09 19:16 259 25.6
2020-Jul-09 19:01 259 25.6
2020-Jul-09 18:45 175 25.6
2020-Jul-09 18:31 170 25.6
2020-Jul-09 18:16 204 25.6
2020-Jul-09 18:01 182 26.1
2020-Jul-09 17:46 169 26.1
2020-Jul-09 17:31 186 26.1
2020-Jul-09 17:15 170 26.1
2020-Jul-09 17:01 094 26.1
2020-Jul-09 16:45 190 26.1
2020-Jul-09 16:31 192 26.1
2020-Jul-09 16:16 172 26.1
2020-Jul-09 16:01 192 26.1
2020-Jul-09 15:46 186 26.7
2020-Jul-09 15:30 182 27.2
2020-Jul-09 15:15 202 27.2
2020-Jul-09 15:01 237 0 gusting 6 27.2
2020-Jul-09 14:45 184 2 gusting 6 28.3
2020-Jul-09 14:31 211 28.3
2020-Jul-09 14:15 207 0 gusting 6 27.8
2020-Jul-09 14:01 209 2 gusting 6 28.3
2020-Jul-09 13:46 198 27.8
2020-Jul-09 13:30 200 3 gusting 7 28.3
2020-Jul-09 13:15 202 0 gusting 9 28.3
2020-Jul-09 13:01 176 0 gusting 7 28.3
2020-Jul-09 12:45 208 4 gusting 6 27.8
2020-Jul-09 12:30 191 1 gusting 6 28.3
2020-Jul-09 12:15 251 1 gusting 9 27.8
2020-Jul-09 12:01 188 3 gusting 7 27.8
2020-Jul-09 11:46 223 27.8
2020-Jul-09 11:30 214 27.8
2020-Jul-09 11:15 242 0 gusting 6 27.8
2020-Jul-09 11:01 238 27.8
2020-Jul-09 10:46 230 0 gusting 6 27.2
2020-Jul-09 10:30 186 1 gusting 6 27.2
2020-Jul-09 10:15 194 0 gusting 7 26.7
2020-Jul-09 10:01 209 0 gusting 9 27.2
2020-Jul-09 09:45 187 1 gusting 7 27.2
2020-Jul-09 09:31 249 27.2
2020-Jul-09 09:15 210 0 gusting 6 26.7
2020-Jul-09 09:01 239 0 gusting 7 26.7
2020-Jul-09 08:45 203 2 gusting 9 26.7
2020-Jul-09 08:31 209 1 gusting 6 26.7
2020-Jul-09 08:15 196 1 gusting 6 26.7
2020-Jul-09 08:01 212 26.7
2020-Jul-09 07:45 207 26.1
2020-Jul-09 07:31 232 26.7
2020-Jul-09 07:16 261 26.7
2020-Jul-09 07:01 330 26.1
2020-Jul-09 06:46 340 25.0
2020-Jul-09 06:30 005 23.9
2020-Jul-09 06:15 331 23.3
2020-Jul-09 06:01 079 22.8
2020-Jul-09 05:46 079 22.8
2020-Jul-09 05:31 079 22.8
2020-Jul-09 05:15 079 22.8
2020-Jul-09 05:01 079 22.8
2020-Jul-09 04:45 081 22.8
2020-Jul-09 04:31 071 22.8
2020-Jul-09 04:16 302 22.8
2020-Jul-09 04:01 302 22.8
2020-Jul-09 03:46 281 22.8
2020-Jul-09 03:30 306 22.8
2020-Jul-09 03:15 320 22.8
2020-Jul-09 03:01 348 22.8
2020-Jul-09 02:46 086 23.3
2020-Jul-09 02:31 088 23.3
2020-Jul-09 02:15 078 23.3
2020-Jul-09 02:01 068 23.3
2020-Jul-09 01:45 331 0 gusting 5 22.8
2020-Jul-09 01:31 313 0 gusting 4 22.8
2020-Jul-09 01:16 335 0 gusting 4 22.2
2020-Jul-09 01:01 323 22.2
2020-Jul-09 00:45 330 22.8
2020-Jul-09 00:30 312 22.8
2020-Jul-09 00:16 026 22.8
2020-Jul-09 00:01 012 22.8
2020-Jul-08 23:45 005 23.3
2020-Jul-08 23:30 338 23.3
2020-Jul-08 23:16 341 23.3
2020-Jul-08 23:01 349 23.3
2020-Jul-08 22:46 360 23.9
2020-Jul-08 22:30 321 24.4
2020-Jul-08 22:16 310 24.4
2020-Jul-08 22:01 308 24.4
2020-Jul-08 21:46 306 24.4
2020-Jul-08 21:30 259 25.0
2020-Jul-08 21:15 251 25.0
2020-Jul-08 21:01 253 25.0
2020-Jul-08 20:46 253 25.6
2020-Jul-08 20:31 256 25.6
2020-Jul-08 20:15 250 25.6
2020-Jul-08 20:01 250 25.6
2020-Jul-08 19:46 230 25.6
2020-Jul-08 19:30 222 25.6
2020-Jul-08 19:15 192 25.6
2020-Jul-08 19:01 190 25.6
2020-Jul-08 18:45 196 26.1
2020-Jul-08 18:31 222 26.1
2020-Jul-08 18:16 208 26.1
2020-Jul-08 18:01 214 0 gusting 5 26.7
2020-Jul-08 17:46 259 26.7
2020-Jul-08 17:30 201 0 gusting 6 26.7
2020-Jul-08 17:15 250 0 gusting 4 26.7
2020-Jul-08 17:01 207 27.2
2020-Jul-08 16:46 220 27.2
2020-Jul-08 16:31 193 27.8
2020-Jul-08 16:15 225 0 gusting 6 27.8
2020-Jul-08 16:01 272 27.8